Time,TemperatureF,DewpointF,PressureIn,WindDirection,WindDirectionDegrees,WindSpeedMPH,WindSpeedGustMPH,Humidity,HourlyPrecipIn,Conditions,Clouds,dailyrainin,SoftwareType,DateUTC
2013-02-07 00:02:00,27.5,6.4,30.35,ENE,76,0.0,0.0,40,0.00,,---,0.00,VWS V14.00,2013-02-07 05:02:00,
2013-02-07 00:03:00,27.4,7.3,30.35,ENE,76,0.0,0.0,42,0.00,,---,0.00,VWS V14.00,2013-02-07 05:03:00,
2013-02-07 00:08:00,27.1,8.1,30.35,ENE,76,0.0,0.0,44,0.00,,---,0.00,VWS V14.00,2013-02-07 05:08:00,
2013-02-07 00:13:00,26.8,7.8,30.35,ENE,76,0.0,0.0,44,0.00,,---,0.00,VWS V14.00,2013-02-07 05:13:00,
2013-02-07 00:18:00,26.5,7.6,30.35,ENE,76,0.0,0.0,44,0.00,,---,0.00,VWS V14.00,2013-02-07 05:18:00,
2013-02-07 00:23:00,26.2,7.3,30.35,ENE,76,0.0,0.0,44,0.00,,---,0.00,VWS V14.00,2013-02-07 05:23:00,
2013-02-07 00:28:00,26.0,7.6,30.36,ENE,76,0.0,0.0,45,0.00,,---,0.00,VWS V14.00,2013-02-07 05:28:00,
2013-02-07 00:33:00,25.8,7.9,30.36,ENE,76,0.0,2.0,46,0.00,,---,0.00,VWS V14.00,2013-02-07 05:33:00,
2013-02-07 00:38:00,25.7,7.8,30.36,ENE,76,0.0,2.0,46,0.00,,---,0.00,VWS V14.00,2013-02-07 05:38:00,
2013-02-07 00:43:00,25.6,8.6,30.36,ENE,76,0.0,2.0,48,0.00,,---,0.00,VWS V14.00,2013-02-07 05:43:00,
2013-02-07 00:48:00,25.4,9.4,30.36,ENE,76,0.0,2.0,50,0.00,,---,0.00,VWS V14.00,2013-02-07 05:48:00,
2013-02-07 00:53:00,25.2,8.7,30.36,ENE,76,0.0,2.0,49,0.00,,---,0.00,VWS V14.00,2013-02-07 05:53:00,
2013-02-07 00:58:00,25.0,8.6,30.37,ENE,76,0.0,0.0,49,0.00,,---,0.00,VWS V14.00,2013-02-07 05:58:00,
2013-02-07 01:03:00,24.8,8.8,30.36,ENE,76,0.0,0.0,50,0.00,,---,0.00,VWS V14.00,2013-02-07 06:03:00,
2013-02-07 01:09:00,24.5,9.0,30.37,ENE,76,0.0,0.0,51,0.00,,---,0.00,VWS V14.00,2013-02-07 06:09:00,
2013-02-07 01:14:00,24.3,9.2,30.37,ENE,76,0.0,0.0,52,0.00,,---,0.00,VWS V14.00,2013-02-07 06:14:00,
2013-02-07 01:19:00,24.1,9.0,30.37,ENE,76,0.0,0.0,52,0.00,,---,0.00,VWS V14.00,2013-02-07 06:19:00,
2013-02-07 01:24:00,23.9,9.7,30.37,ENE,76,0.0,0.0,54,0.00,,---,0.00,VWS V14.00,2013-02-07 06:24:00,
2013-02-07 01:29:00,23.7,9.9,30.37,ENE,76,0.0,0.0,55,0.00,,---,0.00,VWS V14.00,2013-02-07 06:29:00,
2013-02-07 01:34:00,23.5,9.7,30.38,ENE,76,0.0,0.0,55,0.00,,---,0.00,VWS V14.00,2013-02-07 06:34:00,
2013-02-07 01:39:00,23.4,10.4,30.38,ENE,76,0.0,0.0,57,0.00,,---,0.00,VWS V14.00,2013-02-07 06:39:00,
2013-02-07 01:44:00,23.2,12.1,30.39,ENE,76,0.0,0.0,62,0.00,,---,0.00,VWS V14.00,2013-02-07 06:44:00,
2013-02-07 01:49:00,23.0,12.6,30.39,ENE,76,0.0,0.0,64,0.00,,---,0.00,VWS V14.00,2013-02-07 06:49:00,
2013-02-07 01:54:00,22.9,12.9,30.39,ENE,76,0.0,0.0,65,0.00,,---,0.00,VWS V14.00,2013-02-07 06:54:00,
2013-02-07 01:59:00,22.8,12.8,30.39,ENE,76,0.0,0.0,65,0.00,,---,0.00,VWS V14.00,2013-02-07 06:59:00,
2013-02-07 02:04:00,22.6,12.6,30.39,ENE,76,0.0,0.0,65,0.00,,---,0.00,VWS V14.00,2013-02-07 07:04:00,
2013-02-07 02:09:00,22.5,11.8,30.39,ENE,76,0.0,0.0,63,0.00,,---,0.00,VWS V14.00,2013-02-07 07:09:00,
2013-02-07 02:14:00,22.5,10.0,30.39,ENE,76,0.0,0.0,58,0.00,,---,0.00,VWS V14.00,2013-02-07 07:14:00,
2013-02-07 02:19:00,22.9,10.0,30.39,ENE,76,0.0,0.0,57,0.00,,---,0.00,VWS V14.00,2013-02-07 07:19:00,
2013-02-07 02:24:00,23.4,8.8,30.39,ENE,76,0.0,1.0,53,0.00,,---,0.00,VWS V14.00,2013-02-07 07:24:00,
2013-02-07 02:29:00,23.6,9.0,30.39,ENE,76,0.0,0.0,53,0.00,,---,0.00,VWS V14.00,2013-02-07 07:29:00,
2013-02-07 02:34:00,23.6,9.0,30.39,ENE,76,0.0,0.0,53,0.00,,---,0.00,VWS V14.00,2013-02-07 07:34:00,
2013-02-07 02:39:00,23.6,8.1,30.38,ENE,76,0.0,0.0,51,0.00,,---,0.00,VWS V14.00,2013-02-07 07:39:00,
2013-02-07 02:44:00,23.6,8.6,30.38,ENE,76,0.0,0.0,52,0.00,,---,0.00,VWS V14.00,2013-02-07 07:44:00,
2013-02-07 02:49:00,23.5,8.1,30.38,ENE,76,0.0,0.0,51,0.00,,---,0.00,VWS V14.00,2013-02-07 07:49:00,
2013-02-07 02:54:00,23.5,7.6,30.39,ENE,76,0.0,0.0,50,0.00,,---,0.00,VWS V14.00,2013-02-07 07:54:00,
2013-02-07 02:59:00,23.4,8.4,30.39,ENE,76,0.0,0.0,52,0.00,,---,0.00,VWS V14.00,2013-02-07 07:59:00,
2013-02-07 03:04:00,23.3,8.7,30.39,ENE,76,0.0,0.0,53,0.00,,---,0.00,VWS V14.00,2013-02-07 08:04:00,
2013-02-07 03:09:00,23.0,9.2,30.39,ENE,76,0.0,0.0,55,0.00,,---,0.00,VWS V14.00,2013-02-07 08:09:00,
2013-02-07 03:14:00,22.8,9.5,30.40,ENE,76,0.0,0.0,56,0.00,,---,0.00,VWS V14.00,2013-02-07 08:14:00,
2013-02-07 03:19:00,22.7,9.8,30.41,ENE,76,0.0,0.0,57,0.00,,---,0.00,VWS V14.00,2013-02-07 08:19:00,
2013-02-07 03:24:00,22.5,10.0,30.41,ENE,76,0.0,0.0,58,0.00,,---,0.00,VWS V14.00,2013-02-07 08:24:00,
2013-02-07 03:29:00,22.4,9.5,30.41,ENE,76,0.0,0.0,57,0.00,,---,0.00,VWS V14.00,2013-02-07 08:29:00,
2013-02-07 03:34:00,22.2,9.7,30.41,ENE,76,0.0,0.0,58,0.00,,---,0.00,VWS V14.00,2013-02-07 08:34:00,
2013-02-07 03:39:00,22.1,10.4,30.41,ENE,76,0.0,0.0,60,0.00,,---,0.00,VWS V14.00,2013-02-07 08:39:00,
2013-02-07 03:44:00,22.0,10.6,30.41,ENE,76,0.0,0.0,61,0.00,,---,0.00,VWS V14.00,2013-02-07 08:44:00,
2013-02-07 03:49:00,21.9,10.5,30.41,ENE,76,0.0,0.0,61,0.00,,---,0.00,VWS V14.00,2013-02-07 08:49:00,
2013-02-07 03:54:00,21.8,10.1,30.41,ENE,76,0.0,0.0,60,0.00,,---,0.00,VWS V14.00,2013-02-07 08:54:00,
2013-02-07 03:59:00,21.7,10.7,30.41,ENE,76,0.0,0.0,62,0.00,,---,0.00,VWS V14.00,2013-02-07 08:59:00,
2013-02-07 04:04:00,21.6,10.6,30.41,ENE,76,0.0,0.0,62,0.00,,---,0.00,VWS V14.00,2013-02-07 09:04:00,
2013-02-07 04:09:00,21.5,10.1,30.41,ENE,76,0.0,0.0,61,0.00,,---,0.00,VWS V14.00,2013-02-07 09:09:00,
2013-02-07 04:14:00,21.5,9.8,30.41,ENE,76,0.0,0.0,60,0.00,,---,0.00,VWS V14.00,2013-02-07 09:14:00,
2013-02-07 04:20:00,21.4,9.7,30.42,ENE,76,0.0,0.0,60,0.00,,---,0.00,VWS V14.00,2013-02-07 09:20:00,
2013-02-07 04:25:00,21.3,10.7,30.42,ENE,76,0.0,0.0,63,0.00,,---,0.00,VWS V14.00,2013-02-07 09:25:00,
2013-02-07 04:30:00,21.2,10.6,30.42,ENE,76,0.0,0.0,63,0.00,,---,0.00,VWS V14.00,2013-02-07 09:30:00,
2013-02-07 04:35:00,21.1,11.2,30.42,ENE,76,0.0,0.0,65,0.00,,---,0.00,VWS V14.00,2013-02-07 09:35:00,
2013-02-07 04:40:00,21.1,11.9,30.42,ENE,76,0.0,0.0,67,0.00,,---,0.00,VWS V14.00,2013-02-07 09:40:00,
2013-02-07 04:45:00,21.1,12.5,30.43,ENE,76,0.0,0.0,69,0.00,,---,0.00,VWS V14.00,2013-02-07 09:45:00,
2013-02-07 04:50:00,20.9,12.0,30.43,ENE,76,0.0,0.0,68,0.00,,---,0.00,VWS V14.00,2013-02-07 09:50:00,
2013-02-07 04:55:00,20.8,11.9,30.43,ENE,76,0.0,0.0,68,0.00,,---,0.00,VWS V14.00,2013-02-07 09:55:00,
2013-02-07 05:00:00,20.7,11.8,30.43,ENE,76,0.0,0.0,68,0.00,,---,0.00,VWS V14.00,2013-02-07 10:00:00,
2013-02-07 05:05:00,20.6,11.7,30.44,ENE,76,0.0,0.0,68,0.00,,---,0.00,VWS V14.00,2013-02-07 10:05:00,
2013-02-07 05:10:00,20.6,12.4,30.43,ENE,76,0.0,0.0,70,0.00,,---,0.00,VWS V14.00,2013-02-07 10:10:00,
2013-02-07 05:15:00,20.7,13.1,30.43,ENE,76,0.0,0.0,72,0.00,,---,0.00,VWS V14.00,2013-02-07 10:15:00,
2013-02-07 05:20:00,20.6,13.0,30.44,ENE,76,0.0,0.0,72,0.00,,---,0.00,VWS V14.00,2013-02-07 10:20:00,
2013-02-07 05:25:00,20.6,12.7,30.44,ENE,76,0.0,0.0,71,0.00,,---,0.00,VWS V14.00,2013-02-07 10:25:00,
2013-02-07 05:30:00,20.5,12.6,30.44,ENE,76,0.0,0.0,71,0.00,,---,0.00,VWS V14.00,2013-02-07 10:30:00,
2013-02-07 05:35:00,20.4,12.2,30.44,ENE,76,0.0,0.0,70,0.00,,---,0.00,VWS V14.00,2013-02-07 10:35:00,
2013-02-07 05:40:00,20.3,12.1,30.45,ENE,76,0.0,0.0,70,0.00,,---,0.00,VWS V14.00,2013-02-07 10:40:00,
2013-02-07 05:45:00,20.3,12.4,30.44,ENE,76,0.0,0.0,71,0.00,,---,0.00,VWS V14.00,2013-02-07 10:45:00,
2013-02-07 05:50:00,20.2,12.3,30.44,ENE,76,0.0,0.0,71,0.00,,---,0.00,VWS V14.00,2013-02-07 10:50:00,
2013-02-07 05:55:00,20.1,12.2,30.44,ENE,76,0.0,0.0,71,0.00,,---,0.00,VWS V14.00,2013-02-07 10:55:00,
2013-02-07 06:00:00,20.1,12.2,30.44,ENE,76,0.0,0.0,71,0.00,,---,0.00,VWS V14.00,2013-02-07 11:00:00,
2013-02-07 06:05:00,20.0,12.1,30.44,ENE,76,0.0,0.0,71,0.00,,---,0.00,VWS V14.00,2013-02-07 11:05:00,
2013-02-07 06:10:00,20.0,12.4,30.45,ENE,76,0.0,0.0,72,0.00,,---,0.00,VWS V14.00,2013-02-07 11:10:00,
2013-02-07 06:15:00,20.0,13.1,30.44,ENE,76,0.0,0.0,74,0.00,,---,0.00,VWS V14.00,2013-02-07 11:15:00,
2013-02-07 06:20:00,20.0,13.1,30.44,ENE,76,0.0,0.0,74,0.00,,---,0.00,VWS V14.00,2013-02-07 11:20:00,
2013-02-07 06:25:00,20.1,12.9,30.44,ENE,76,0.0,0.0,73,0.00,,---,0.00,VWS V14.00,2013-02-07 11:25:00,
2013-02-07 06:30:00,20.1,13.2,30.44,ENE,76,0.0,0.0,74,0.00,,---,0.00,VWS V14.00,2013-02-07 11:30:00,
2013-02-07 06:35:00,20.2,13.2,30.44,ENE,76,0.0,0.0,74,0.00,,---,0.00,VWS V14.00,2013-02-07 11:35:00,
2013-02-07 06:40:00,20.3,13.0,30.44,ENE,76,0.0,0.0,73,0.00,,---,0.00,VWS V14.00,2013-02-07 11:40:00,
2013-02-07 06:45:00,20.4,12.8,30.45,ENE,76,0.0,0.0,72,0.00,,---,0.00,VWS V14.00,2013-02-07 11:45:00,
2013-02-07 06:50:00,20.5,12.6,30.46,ENE,76,0.0,0.0,71,0.00,,---,0.00,VWS V14.00,2013-02-07 11:50:00,
2013-02-07 06:55:00,20.6,12.4,30.47,ENE,76,0.0,0.0,70,0.00,,---,0.00,VWS V14.00,2013-02-07 11:55:00,
2013-02-07 07:00:00,20.8,12.2,30.47,ENE,76,0.0,0.0,69,0.00,,---,0.00,VWS V14.00,2013-02-07 12:00:00,
2013-02-07 07:05:00,20.9,12.0,30.47,ENE,76,0.0,0.0,68,0.00,,---,0.00,VWS V14.00,2013-02-07 12:05:00,
2013-02-07 07:10:00,21.1,12.2,30.47,ENE,76,0.0,0.0,68,0.00,,---,0.00,VWS V14.00,2013-02-07 12:10:00,
2013-02-07 07:15:00,21.2,11.6,30.48,ENE,76,0.0,0.0,66,0.00,,---,0.00,VWS V14.00,2013-02-07 12:15:00,
2013-02-07 07:20:00,21.3,11.4,30.48,ENE,76,0.0,0.0,65,0.00,,---,0.00,VWS V14.00,2013-02-07 12:20:00,
2013-02-07 07:25:00,21.5,11.6,30.48,ENE,76,0.0,0.0,65,0.00,,---,0.00,VWS V14.00,2013-02-07 12:25:00,
2013-02-07 07:30:00,21.7,11.8,30.48,ENE,76,0.0,0.0,65,0.00,,---,0.00,VWS V14.00,2013-02-07 12:30:00,
2013-02-07 07:35:00,21.8,11.5,30.49,ENE,76,0.0,0.0,64,0.00,,---,0.00,VWS V14.00,2013-02-07 12:35:00,
2013-02-07 07:40:00,22.0,11.4,30.49,ENE,76,0.0,1.0,63,0.00,,---,0.00,VWS V14.00,2013-02-07 12:40:00,
2013-02-07 07:45:00,22.2,10.8,30.49,ENE,76,0.0,1.0,61,0.00,,---,0.00,VWS V14.00,2013-02-07 12:45:00,
2013-02-07 07:51:00,22.5,10.7,30.50,ENE,76,0.0,1.0,60,0.00,,---,0.00,VWS V14.00,2013-02-07 12:51:00,
2013-02-07 07:56:00,22.7,10.5,30.50,ENE,76,0.0,1.0,59,0.00,,---,0.00,VWS V14.00,2013-02-07 12:56:00,
2013-02-07 08:01:00,23.0,10.8,30.50,ENE,76,0.0,0.0,59,0.00,,---,0.00,VWS V14.00,2013-02-07 13:01:00,
2013-02-07 08:06:00,23.3,10.7,30.51,ENE,76,0.0,0.0,58,0.00,,---,0.00,VWS V14.00,2013-02-07 13:06:00,
2013-02-07 08:11:00,23.5,10.9,30.51,ENE,76,0.0,0.0,58,0.00,,---,0.00,VWS V14.00,2013-02-07 13:11:00,
2013-02-07 08:16:00,23.7,11.1,30.51,ENE,76,0.0,0.0,58,0.00,,---,0.00,VWS V14.00,2013-02-07 13:16:00,
2013-02-07 08:21:00,23.9,10.5,30.51,ENE,76,0.0,0.0,56,0.00,,---,0.00,VWS V14.00,2013-02-07 13:21:00,
2013-02-07 08:26:00,24.1,10.7,30.51,ENE,76,0.0,0.0,56,0.00,,---,0.00,VWS V14.00,2013-02-07 13:26:00,
2013-02-07 08:31:00,24.3,10.5,30.51,ENE,76,0.0,2.0,55,0.00,,---,0.00,VWS V14.00,2013-02-07 13:31:00,
2013-02-07 08:36:00,24.4,11.0,30.51,ENE,76,0.0,2.0,56,0.00,,---,0.00,VWS V14.00,2013-02-07 13:36:00,
2013-02-07 08:41:00,24.6,11.2,30.51,ENE,76,0.0,2.0,56,0.00,,---,0.00,VWS V14.00,2013-02-07 13:41:00,
2013-02-07 08:46:00,24.8,10.9,30.51,ENE,76,3.0,4.0,55,0.00,,---,0.00,VWS V14.00,2013-02-07 13:46:00,
2013-02-07 08:51:00,24.9,10.6,30.51,ENE,66,3.0,4.0,54,0.00,,---,0.00,VWS V14.00,2013-02-07 13:51:00,
2013-02-07 08:56:00,25.1,10.4,30.51,ENE,66,0.0,4.0,53,0.00,,---,0.00,VWS V14.00,2013-02-07 13:56:00,
2013-02-07 09:01:00,25.2,10.5,30.51,NE,54,4.0,5.0,53,0.00,,---,0.00,VWS V14.00,2013-02-07 14:01:00,
2013-02-07 09:06:00,25.3,10.1,30.51,ENE,74,0.0,5.0,52,0.00,,---,0.00,VWS V14.00,2013-02-07 14:06:00,
2013-02-07 09:11:00,25.4,10.7,30.50,ENE,71,0.0,5.0,53,0.00,,---,0.00,VWS V14.00,2013-02-07 14:11:00,
2013-02-07 09:16:00,25.6,10.4,30.50,NE,54,4.0,5.0,52,0.00,,---,0.00,VWS V14.00,2013-02-07 14:16:00,
2013-02-07 09:21:00,25.7,10.9,30.51,NE,54,0.0,5.0,53,0.00,,---,0.00,VWS V14.00,2013-02-07 14:21:00,
2013-02-07 09:26:00,25.9,11.1,30.50,NE,54,0.0,0.0,53,0.00,,---,0.00,VWS V14.00,2013-02-07 14:26:00,
2013-02-07 09:31:00,26.0,11.2,30.50,NE,55,1.0,4.0,53,0.00,,---,0.00,VWS V14.00,2013-02-07 14:31:00,
2013-02-07 09:36:00,26.2,11.4,30.50,NE,55,2.0,4.0,53,0.00,,---,0.00,VWS V14.00,2013-02-07 14:36:00,
2013-02-07 09:41:00,26.5,11.3,30.50,ENE,78,3.0,5.0,52,0.00,,---,0.00,VWS V14.00,2013-02-07 14:41:00,
2013-02-07 09:46:00,26.7,11.9,30.51,East,97,2.0,5.0,53,0.00,,---,0.00,VWS V14.00,2013-02-07 14:46:00,
2013-02-07 09:51:00,27.0,11.3,30.50,East,86,3.0,8.0,51,0.00,,---,0.00,VWS V14.00,2013-02-07 14:51:00,
2013-02-07 09:56:00,27.2,11.5,30.50,East,95,1.0,4.0,51,0.00,,---,0.00,VWS V14.00,2013-02-07 14:56:00,
2013-02-07 10:01:00,27.3,11.6,30.51,ESE,109,0.0,6.0,51,0.00,,---,0.00,VWS V14.00,2013-02-07 15:01:00,
2013-02-07 10:06:00,27.4,11.2,30.52,East,84,1.0,6.0,50,0.00,,---,0.00,VWS V14.00,2013-02-07 15:06:00,
2013-02-07 10:11:00,27.4,11.7,30.52,ENE,71,0.0,6.0,51,0.00,,---,0.00,VWS V14.00,2013-02-07 15:11:00,
2013-02-07 10:16:00,27.5,11.8,30.52,ENE,64,3.0,6.0,51,0.00,,---,0.00,VWS V14.00,2013-02-07 15:16:00,
2013-02-07 10:21:00,27.7,11.9,30.52,East,98,1.0,6.0,51,0.00,,---,0.00,VWS V14.00,2013-02-07 15:21:00,
2013-02-07 10:26:00,27.8,12.0,30.52,NNE,15,2.0,2.0,51,0.00,,---,0.00,VWS V14.00,2013-02-07 15:26:00,
2013-02-07 10:31:00,27.9,11.7,30.52,East,80,2.0,6.0,50,0.00,,---,0.00,VWS V14.00,2013-02-07 15:31:00,
2013-02-07 10:36:00,28.0,11.3,30.52,East,98,0.0,6.0,49,0.00,,---,0.00,VWS V14.00,2013-02-07 15:36:00,
2013-02-07 10:41:00,28.0,11.8,30.53,ENE,67,5.0,7.0,50,0.00,,---,0.00,VWS V14.00,2013-02-07 15:41:00,
2013-02-07 10:47:00,28.2,11.5,30.52,NE,49,1.0,7.0,49,0.00,,---,0.00,VWS V14.00,2013-02-07 15:47:00,
2013-02-07 10:52:00,28.2,10.6,30.52,SE,141,5.0,7.0,47,0.00,,---,0.00,VWS V14.00,2013-02-07 15:52:00,
2013-02-07 10:57:00,28.3,11.1,30.52,ESE,115,5.0,5.0,48,0.00,,---,0.00,VWS V14.00,2013-02-07 15:57:00,
2013-02-07 11:02:00,28.4,10.8,30.52,SE,126,1.0,5.0,47,0.00,,---,0.00,VWS V14.00,2013-02-07 16:02:00,
2013-02-07 11:07:00,28.4,10.8,30.52,ENE,67,2.0,5.0,47,0.00,,---,0.00,VWS V14.00,2013-02-07 16:07:00,
2013-02-07 11:12:00,28.4,11.2,30.51,NNE,19,2.0,5.0,48,0.00,,---,0.00,VWS V14.00,2013-02-07 16:12:00,
2013-02-07 11:17:00,28.3,11.6,30.50,NE,44,3.0,5.0,49,0.00,,---,0.00,VWS V14.00,2013-02-07 16:17:00,
2013-02-07 11:22:00,28.5,11.3,30.50,SE,141,6.0,6.0,48,0.00,,---,0.00,VWS V14.00,2013-02-07 16:22:00,
2013-02-07 11:27:00,28.8,11.6,30.50,East,86,3.0,6.0,48,0.00,,---,0.00,VWS V14.00,2013-02-07 16:27:00,
2013-02-07 11:32:00,28.9,11.2,30.50,East,81,4.0,6.0,47,0.00,,---,0.00,VWS V14.00,2013-02-07 16:32:00,
2013-02-07 11:37:00,28.8,11.1,30.50,ENE,71,3.0,6.0,47,0.00,,---,0.00,VWS V14.00,2013-02-07 16:37:00,
2013-02-07 11:42:00,28.7,11.0,30.50,ENE,68,2.0,6.0,47,0.00,,---,0.00,VWS V14.00,2013-02-07 16:42:00,
2013-02-07 11:47:00,28.7,12.0,30.49,ENE,67,2.0,6.0,49,0.00,,---,0.00,VWS V14.00,2013-02-07 16:47:00,
2013-02-07 11:52:00,28.8,11.1,30.49,East,86,3.0,6.0,47,0.00,,---,0.00,VWS V14.00,2013-02-07 16:52:00,
2013-02-07 11:57:00,28.9,11.2,30.49,ENE,64,5.0,5.0,47,0.00,,---,0.00,VWS V14.00,2013-02-07 16:57:00,
2013-02-07 12:02:00,28.9,11.2,30.49,NE,41,6.0,6.0,47,0.00,,---,0.00,VWS V14.00,2013-02-07 17:02:00,
2013-02-07 12:07:00,29.0,11.3,30.49,East,80,2.0,6.0,47,0.00,,---,0.00,VWS V14.00,2013-02-07 17:07:00,
2013-02-07 12:12:00,29.2,11.5,30.49,ENE,59,3.0,6.0,47,0.00,,---,0.00,VWS V14.00,2013-02-07 17:12:00,
2013-02-07 12:17:00,29.4,11.2,30.49,NNE,30,2.0,6.0,46,0.00,,---,0.00,VWS V14.00,2013-02-07 17:17:00,
2013-02-07 12:22:00,29.5,12.2,30.48,ENE,66,3.0,6.0,48,0.00,,---,0.00,VWS V14.00,2013-02-07 17:22:00,
2013-02-07 12:27:00,29.9,12.6,30.48,East,83,0.0,0.0,48,0.00,,---,0.00,VWS V14.00,2013-02-07 17:27:00,
2013-02-07 12:32:00,30.1,12.3,30.48,ENE,57,5.0,5.0,47,0.00,,---,0.00,VWS V14.00,2013-02-07 17:32:00,
2013-02-07 12:37:00,30.1,11.3,30.48,NE,49,3.0,6.0,45,0.00,,---,0.00,VWS V14.00,2013-02-07 17:37:00,
2013-02-07 12:42:00,30.0,11.2,30.48,ENE,74,3.0,6.0,45,0.00,,---,0.00,VWS V14.00,2013-02-07 17:42:00,
2013-02-07 12:47:00,30.1,11.3,30.48,ESE,117,4.0,6.0,45,0.00,,---,0.00,VWS V14.00,2013-02-07 17:47:00,
2013-02-07 12:52:00,30.2,11.9,30.48,ESE,102,0.0,6.0,46,0.00,,---,0.00,VWS V14.00,2013-02-07 17:52:00,
2013-02-07 12:57:00,30.4,12.1,30.48,ESE,105,5.0,5.0,46,0.00,,---,0.00,VWS V14.00,2013-02-07 17:57:00,
2013-02-07 13:02:00,30.6,11.8,30.47,SSE,157,2.0,5.0,45,0.00,,---,0.00,VWS V14.00,2013-02-07 18:02:00,
2013-02-07 13:07:00,30.9,12.1,30.48,SE,139,1.0,5.0,45,0.00,,---,0.00,VWS V14.00,2013-02-07 18:07:00,
2013-02-07 13:12:00,31.0,11.1,30.47,SE,139,0.0,5.0,43,0.00,,---,0.00,VWS V14.00,2013-02-07 18:12:00,
2013-02-07 13:17:00,31.1,12.2,30.47,SSE,148,5.0,5.0,45,0.00,,---,0.00,VWS V14.00,2013-02-07 18:17:00,
2013-02-07 13:22:00,31.2,11.3,30.47,NE,53,2.0,5.0,43,0.00,,---,0.00,VWS V14.00,2013-02-07 18:22:00,
2013-02-07 13:27:00,31.2,11.3,30.47,SSE,158,2.0,3.0,43,0.00,,---,0.00,VWS V14.00,2013-02-07 18:27:00,
2013-02-07 13:32:00,31.4,12.0,30.47,East,87,4.0,5.0,44,0.00,,---,0.00,VWS V14.00,2013-02-07 18:32:00,
2013-02-07 13:37:00,31.6,12.2,30.47,ESE,117,0.0,6.0,44,0.00,,---,0.00,VWS V14.00,2013-02-07 18:37:00,
2013-02-07 13:42:00,31.9,12.0,30.47,East,93,0.0,6.0,43,0.00,,---,0.00,VWS V14.00,2013-02-07 18:42:00,
2013-02-07 13:47:00,31.9,11.4,30.47,East,93,0.0,6.0,42,0.00,,---,0.00,VWS V14.00,2013-02-07 18:47:00,
2013-02-07 13:52:00,31.7,11.8,30.47,East,94,0.0,6.0,43,0.00,,---,0.00,VWS V14.00,2013-02-07 18:52:00,
2013-02-07 13:57:00,31.6,12.2,30.47,ESE,122,1.0,5.0,44,0.00,,---,0.00,VWS V14.00,2013-02-07 18:57:00,
2013-02-07 14:02:00,31.7,11.8,30.46,SSE,153,1.0,5.0,43,0.00,,---,0.00,VWS V14.00,2013-02-07 19:02:00,
2013-02-07 14:07:00,31.9,11.4,30.46,SSE,153,0.0,5.0,42,0.00,,---,0.00,VWS V14.00,2013-02-07 19:07:00,
2013-02-07 14:12:00,31.9,11.4,30.46,ESE,117,4.0,5.0,42,0.00,,---,0.00,VWS V14.00,2013-02-07 19:12:00,
2013-02-07 14:17:00,31.8,11.3,30.45,ESE,121,4.0,5.0,42,0.00,,---,0.00,VWS V14.00,2013-02-07 19:17:00,
2013-02-07 14:22:00,31.8,11.9,30.45,ESE,121,0.0,5.0,43,0.00,,---,0.00,VWS V14.00,2013-02-07 19:22:00,
2013-02-07 14:28:00,31.9,12.0,30.45,ESE,121,0.0,4.0,43,0.00,,---,0.00,VWS V14.00,2013-02-07 19:28:00,
2013-02-07 14:33:00,32.0,12.1,30.45,ESE,122,4.0,4.0,43,0.00,,---,0.00,VWS V14.00,2013-02-07 19:33:00,
2013-02-07 14:38:00,32.1,12.7,30.45,ESE,122,0.0,4.0,44,0.00,,---,0.00,VWS V14.00,2013-02-07 19:38:00,
2013-02-07 14:43:00,32.1,12.7,30.45,ESE,116,0.0,4.0,44,0.00,,---,0.00,VWS V14.00,2013-02-07 19:43:00,
2013-02-07 14:48:00,32.1,11.6,30.45,ENE,76,1.0,4.0,42,0.00,,---,0.00,VWS V14.00,2013-02-07 19:48:00,
2013-02-07 14:53:00,32.0,12.1,30.45,ESE,117,4.0,5.0,43,0.00,,---,0.00,VWS V14.00,2013-02-07 19:53:00,
2013-02-07 14:58:00,32.0,11.5,30.45,ESE,109,2.0,2.0,42,0.00,,---,0.00,VWS V14.00,2013-02-07 19:58:00,
2013-02-07 15:03:00,32.2,11.7,30.44,ESE,111,1.0,6.0,42,0.00,,---,0.00,VWS V14.00,2013-02-07 20:03:00,
2013-02-07 15:08:00,32.2,11.7,30.44,ESE,111,0.0,6.0,42,0.00,,---,0.00,VWS V14.00,2013-02-07 20:08:00,
2013-02-07 15:13:00,32.3,11.2,30.44,East,96,2.0,6.0,41,0.00,,---,0.00,VWS V14.00,2013-02-07 20:13:00,
2013-02-07 15:18:00,32.3,11.8,30.44,ESE,117,0.0,6.0,42,0.00,,---,0.00,VWS V14.00,2013-02-07 20:18:00,
2013-02-07 15:23:00,32.4,11.9,30.44,East,89,3.0,6.0,42,0.00,,---,0.00,VWS V14.00,2013-02-07 20:23:00,
2013-02-07 15:28:00,32.4,11.9,30.44,ESE,111,4.0,4.0,42,0.00,,---,0.00,VWS V14.00,2013-02-07 20:28:00,
2013-02-07 15:33:00,32.3,12.3,30.44,SSE,165,4.0,8.0,43,0.00,,---,0.00,VWS V14.00,2013-02-07 20:33:00,
2013-02-07 15:38:00,32.3,12.3,30.43,ESE,117,2.0,8.0,43,0.00,,---,0.00,VWS V14.00,2013-02-07 20:38:00,
2013-02-07 15:43:00,32.1,12.1,30.43,SE,132,4.0,8.0,43,0.00,,---,0.00,VWS V14.00,2013-02-07 20:43:00,
2013-02-07 15:48:00,32.0,12.1,30.43,SSE,158,2.0,8.0,43,0.00,,---,0.00,VWS V14.00,2013-02-07 20:48:00,
2013-02-07 15:53:00,32.0,12.6,30.43,South,171,2.0,8.0,44,0.00,,---,0.00,VWS V14.00,2013-02-07 20:53:00,
2013-02-07 15:58:00,31.9,10.3,30.43,SSE,168,7.0,7.0,40,0.00,,---,0.00,VWS V14.00,2013-02-07 20:58:00,
2013-02-07 16:03:00,31.9,10.9,30.43,ESE,123,4.0,7.0,41,0.00,,---,0.00,VWS V14.00,2013-02-07 21:03:00,
2013-02-07 16:08:00,31.8,10.8,30.43,ESE,119,1.0,7.0,41,0.00,,---,0.00,VWS V14.00,2013-02-07 21:08:00,
2013-02-07 16:13:00,31.9,10.9,30.43,East,99,1.0,7.0,41,0.00,,---,0.00,VWS V14.00,2013-02-07 21:13:00,
2013-02-07 16:18:00,31.8,10.2,30.42,SE,130,5.0,7.0,40,0.00,,---,0.00,VWS V14.00,2013-02-07 21:18:00,
2013-02-07 16:23:00,31.7,10.1,30.43,SE,127,2.0,7.0,40,0.00,,---,0.00,VWS V14.00,2013-02-07 21:23:00,
2013-02-07 16:28:00,31.7,9.6,30.42,ESE,123,1.0,7.0,39,0.00,,---,0.00,VWS V14.00,2013-02-07 21:28:00,
2013-02-07 16:33:00,31.6,9.5,30.42,SE,126,4.0,7.0,39,0.00,,---,0.00,VWS V14.00,2013-02-07 21:33:00,
2013-02-07 16:38:00,31.6,10.1,30.42,SSE,153,4.0,7.0,40,0.00,,---,0.00,VWS V14.00,2013-02-07 21:38:00,
2013-02-07 16:43:00,31.5,9.4,30.41,SE,146,2.0,9.0,39,0.00,,---,0.00,VWS V14.00,2013-02-07 21:43:00,
2013-02-07 16:48:00,31.5,10.0,30.42,South,173,4.0,9.0,40,0.00,,---,0.00,VWS V14.00,2013-02-07 21:48:00,
2013-02-07 16:53:00,31.5,9.4,30.41,SE,140,5.0,9.0,39,0.00,,---,0.00,VWS V14.00,2013-02-07 21:53:00,
2013-02-07 16:58:00,31.4,9.3,30.42,SSE,152,2.0,6.0,39,0.00,,---,0.00,VWS V14.00,2013-02-07 21:58:00,
2013-02-07 17:03:00,31.3,9.2,30.41,ESE,103,4.0,7.0,39,0.00,,---,0.00,VWS V14.00,2013-02-07 22:03:00,
2013-02-07 17:08:00,31.2,9.7,30.42,SE,131,4.0,8.0,40,0.00,,---,0.00,VWS V14.00,2013-02-07 22:08:00,
2013-02-07 17:13:00,31.0,9.0,30.42,ESE,111,1.0,8.0,39,0.00,,---,0.00,VWS V14.00,2013-02-07 22:13:00,
2013-02-07 17:18:00,30.9,8.9,30.42,East,94,2.0,8.0,39,0.00,,---,0.00,VWS V14.00,2013-02-07 22:18:00,
2013-02-07 17:23:00,30.7,9.2,30.42,ESE,113,2.0,8.0,40,0.00,,---,0.00,VWS V14.00,2013-02-07 22:23:00,
2013-02-07 17:28:00,30.5,9.6,30.42,ESE,117,1.0,5.0,41,0.00,,---,0.00,VWS V14.00,2013-02-07 22:28:00,
2013-02-07 17:33:00,30.3,9.4,30.42,ESE,117,2.0,5.0,41,0.00,,---,0.00,VWS V14.00,2013-02-07 22:33:00,
2013-02-07 17:38:00,30.2,9.9,30.42,ESE,115,1.0,5.0,42,0.00,,---,0.00,VWS V14.00,2013-02-07 22:38:00,
2013-02-07 17:43:00,30.0,9.7,30.42,ESE,103,1.0,5.0,42,0.00,,---,0.00,VWS V14.00,2013-02-07 22:43:00,
2013-02-07 17:48:00,29.9,10.1,30.42,East,101,1.0,5.0,43,0.00,,---,0.00,VWS V14.00,2013-02-07 22:48:00,
2013-02-07 17:53:00,29.7,10.0,30.42,East,101,0.0,5.0,43,0.00,,---,0.00,VWS V14.00,2013-02-07 22:53:00,
2013-02-07 17:58:00,29.6,10.4,30.42,East,80,0.0,3.0,44,0.00,,---,0.00,VWS V14.00,2013-02-07 22:58:00,
2013-02-07 18:03:00,29.5,10.8,30.42,East,80,0.0,3.0,45,0.00,,---,0.00,VWS V14.00,2013-02-07 23:03:00,
2013-02-07 18:08:00,29.4,10.7,30.42,SE,131,1.0,4.0,45,0.00,,---,0.00,VWS V14.00,2013-02-07 23:08:00,
2013-02-07 18:14:00,29.2,11.0,30.42,SE,131,0.0,4.0,46,0.00,,---,0.00,VWS V14.00,2013-02-07 23:14:00,
2013-02-07 18:19:00,29.1,10.9,30.42,SE,131,0.0,4.0,46,0.00,,---,0.00,VWS V14.00,2013-02-07 23:19:00,
2013-02-07 18:24:00,29.0,11.3,30.42,SE,128,1.0,4.0,47,0.00,,---,0.00,VWS V14.00,2013-02-07 23:24:00,
2013-02-07 18:29:00,28.9,11.2,30.42,ESE,121,0.0,4.0,47,0.00,,---,0.00,VWS V14.00,2013-02-07 23:29:00,
2013-02-07 18:34:00,28.8,11.6,30.42,ESE,121,0.0,4.0,48,0.00,,---,0.00,VWS V14.00,2013-02-07 23:34:00,
2013-02-07 18:39:00,28.7,11.5,30.42,ESE,111,0.0,4.0,48,0.00,,---,0.00,VWS V14.00,2013-02-07 23:39:00,
2013-02-07 18:44:00,28.7,12.0,30.42,ESE,106,0.0,4.0,49,0.00,,---,0.00,VWS V14.00,2013-02-07 23:44:00,
2013-02-07 18:49:00,28.6,11.9,30.43,East,91,0.0,4.0,49,0.00,,---,0.00,VWS V14.00,2013-02-07 23:49:00,
2013-02-07 18:54:00,28.5,11.8,30.43,East,91,1.0,4.0,49,0.00,,---,0.00,VWS V14.00,2013-02-07 23:54:00,
2013-02-07 18:59:00,28.5,12.2,30.43,East,91,0.0,0.0,50,0.00,,---,0.00,VWS V14.00,2013-02-07 23:59:00,
2013-02-07 19:04:00,28.5,12.2,30.43,East,91,0.0,0.0,50,0.00,,---,0.00,VWS V14.00,2013-02-08 00:04:00,
2013-02-07 19:09:00,28.4,12.1,30.44,East,91,0.0,0.0,50,0.00,,---,0.00,VWS V14.00,2013-02-08 00:09:00,
2013-02-07 19:14:00,28.3,13.4,30.44,East,91,0.0,0.0,53,0.00,,---,0.00,VWS V14.00,2013-02-08 00:14:00,
2013-02-07 19:19:00,28.1,13.2,30.44,East,91,0.0,1.0,53,0.00,,---,0.00,VWS V14.00,2013-02-08 00:19:00,
2013-02-07 19:24:00,28.1,13.6,30.43,East,91,0.0,1.0,54,0.00,,---,0.00,VWS V14.00,2013-02-08 00:24:00,
2013-02-07 19:29:00,28.0,13.5,30.43,East,91,0.0,0.0,54,0.00,,---,0.00,VWS V14.00,2013-02-08 00:29:00,
2013-02-07 19:34:00,27.8,13.8,30.44,East,91,0.0,0.0,55,0.00,,---,0.00,VWS V14.00,2013-02-08 00:34:00,
2013-02-07 19:39:00,27.7,14.5,30.43,East,91,0.0,0.0,57,0.00,,---,0.00,VWS V14.00,2013-02-08 00:39:00,
2013-02-07 19:44:00,27.6,14.4,30.43,East,91,0.0,0.0,57,0.00,,---,0.00,VWS V14.00,2013-02-08 00:44:00,
2013-02-07 19:49:00,27.5,14.3,30.43,East,91,0.0,0.0,57,0.00,,---,0.00,VWS V14.00,2013-02-08 00:49:00,
2013-02-07 19:54:00,27.4,14.2,30.43,East,91,0.0,0.0,57,0.00,,---,0.00,VWS V14.00,2013-02-08 00:54:00,
2013-02-07 19:59:00,27.2,14.4,30.43,East,91,0.0,0.0,58,0.00,,---,0.00,VWS V14.00,2013-02-08 00:59:00,
2013-02-07 20:04:00,27.0,14.2,30.43,East,91,0.0,0.0,58,0.00,,---,0.00,VWS V14.00,2013-02-08 01:04:00,
2013-02-07 20:09:00,26.9,14.1,30.43,East,91,0.0,0.0,58,0.00,,---,0.00,VWS V14.00,2013-02-08 01:09:00,
2013-02-07 20:14:00,26.7,13.9,30.43,East,91,0.0,0.0,58,0.00,,---,0.00,VWS V14.00,2013-02-08 01:14:00,
2013-02-07 20:19:00,26.5,14.1,30.43,East,91,0.0,0.0,59,0.00,,---,0.00,VWS V14.00,2013-02-08 01:19:00,
2013-02-07 20:24:00,26.5,14.9,30.42,East,91,0.0,0.0,61,0.00,,---,0.00,VWS V14.00,2013-02-08 01:24:00,
2013-02-07 20:29:00,26.4,14.8,30.42,East,91,0.0,0.0,61,0.00,,---,0.00,VWS V14.00,2013-02-08 01:29:00,
2013-02-07 20:34:00,26.3,15.1,30.42,East,91,0.0,0.0,62,0.00,,---,0.00,VWS V14.00,2013-02-08 01:34:00,
2013-02-07 20:39:00,26.3,15.8,30.42,East,91,0.0,0.0,64,0.00,,---,0.00,VWS V14.00,2013-02-08 01:39:00,
2013-02-07 20:44:00,26.4,16.6,30.42,East,91,0.0,0.0,66,0.00,,---,0.00,VWS V14.00,2013-02-08 01:44:00,
2013-02-07 20:49:00,26.3,16.5,30.42,East,91,0.0,0.0,66,0.00,,---,0.00,VWS V14.00,2013-02-08 01:49:00,
2013-02-07 20:54:00,26.3,16.5,30.43,East,91,0.0,0.0,66,0.00,,---,0.00,VWS V14.00,2013-02-08 01:54:00,
2013-02-07 20:59:00,26.1,16.3,30.42,East,91,0.0,0.0,66,0.00,,---,0.00,VWS V14.00,2013-02-08 01:59:00,
2013-02-07 21:04:00,26.1,16.3,30.42,East,91,0.0,0.0,66,0.00,,---,0.00,VWS V14.00,2013-02-08 02:04:00,
2013-02-07 21:09:00,26.0,16.2,30.42,East,91,0.0,0.0,66,0.00,,---,0.00,VWS V14.00,2013-02-08 02:09:00,
2013-02-07 21:14:00,26.0,16.2,30.42,East,91,0.0,0.0,66,0.00,,---,0.00,VWS V14.00,2013-02-08 02:14:00,
2013-02-07 21:19:00,26.0,16.6,30.42,East,91,0.0,0.0,67,0.00,,---,0.00,VWS V14.00,2013-02-08 02:19:00,
2013-02-07 21:24:00,26.0,16.6,30.42,East,91,0.0,0.0,67,0.00,,---,0.00,VWS V14.00,2013-02-08 02:24:00,
2013-02-07 21:29:00,26.0,16.6,30.42,East,91,0.0,0.0,67,0.00,,---,0.00,VWS V14.00,2013-02-08 02:29:00,
2013-02-07 21:34:00,26.1,16.7,30.41,East,91,0.0,2.0,67,0.00,,---,0.00,VWS V14.00,2013-02-08 02:34:00,
2013-02-07 21:39:00,26.2,16.4,30.41,East,91,0.0,2.0,66,0.00,,---,0.00,VWS V14.00,2013-02-08 02:39:00,
2013-02-07 21:44:00,26.2,16.4,30.41,East,91,0.0,2.0,66,0.00,,---,0.00,VWS V14.00,2013-02-08 02:44:00,
2013-02-07 21:49:00,26.3,16.5,30.41,East,91,0.0,2.0,66,0.00,,---,0.00,VWS V14.00,2013-02-08 02:49:00,
2013-02-07 21:54:00,26.4,16.6,30.40,East,91,0.0,2.0,66,0.00,,---,0.00,VWS V14.00,2013-02-08 02:54:00,
2013-02-07 21:59:00,26.5,16.7,30.40,East,91,0.0,0.0,66,0.00,,---,0.00,VWS V14.00,2013-02-08 02:59:00,
2013-02-07 22:04:00,26.6,16.8,30.40,East,91,0.0,0.0,66,0.00,,---,0.00,VWS V14.00,2013-02-08 03:04:00,
2013-02-07 22:09:00,26.7,17.2,30.40,East,91,0.0,1.0,67,0.00,,---,0.00,VWS V14.00,2013-02-08 03:09:00,
2013-02-07 22:14:00,26.9,17.4,30.39,East,91,2.0,2.0,67,0.00,,---,0.00,VWS V14.00,2013-02-08 03:14:00,
2013-02-07 22:19:00,27.2,17.7,30.39,East,91,0.0,2.0,67,0.00,,---,0.00,VWS V14.00,2013-02-08 03:19:00,
2013-02-07 22:24:00,27.4,17.9,30.39,East,91,0.0,4.0,67,0.00,,---,0.00,VWS V14.00,2013-02-08 03:24:00,
2013-02-07 22:29:00,27.7,17.8,30.39,ENE,65,0.0,3.0,66,0.00,,---,0.00,VWS V14.00,2013-02-08 03:29:00,
2013-02-07 22:34:00,27.9,18.0,30.39,ENE,65,0.0,3.0,66,0.00,,---,0.00,VWS V14.00,2013-02-08 03:34:00,
2013-02-07 22:39:00,28.1,18.2,30.39,ENE,65,0.0,3.0,66,0.00,,---,0.00,VWS V14.00,2013-02-08 03:39:00,
2013-02-07 22:44:00,28.4,18.5,30.39,ENE,65,2.0,4.0,66,0.00,,---,0.00,VWS V14.00,2013-02-08 03:44:00,
2013-02-07 22:49:00,28.6,18.7,30.38,ENE,65,0.0,4.0,66,0.00,,---,0.00,VWS V14.00,2013-02-08 03:49:00,
2013-02-07 22:54:00,28.7,18.8,30.38,ENE,65,0.0,4.0,66,0.00,,---,0.00,VWS V14.00,2013-02-08 03:54:00,
2013-02-07 22:59:00,28.8,19.2,30.38,ENE,65,0.0,3.0,67,0.00,,---,0.00,VWS V14.00,2013-02-08 03:59:00,
2013-02-07 23:04:00,28.8,19.2,30.37,ENE,65,0.0,3.0,67,0.00,,---,0.00,VWS V14.00,2013-02-08 04:04:00,
2013-02-07 23:09:00,29.0,19.4,30.37,ENE,65,3.0,4.0,67,0.00,,---,0.00,VWS V14.00,2013-02-08 04:09:00,
2013-02-07 23:14:00,29.0,19.4,30.36,ENE,65,1.0,4.0,67,0.00,,---,0.00,VWS V14.00,2013-02-08 04:14:00,
2013-02-07 23:19:00,29.1,19.5,30.36,ENE,65,1.0,4.0,67,0.00,,---,0.00,VWS V14.00,2013-02-08 04:19:00,
2013-02-07 23:24:00,29.2,20.0,30.36,ENE,65,4.0,4.0,68,0.00,,---,0.00,VWS V14.00,2013-02-08 04:24:00,
2013-02-07 23:29:00,29.2,20.0,30.36,ENE,59,0.0,3.0,68,0.00,,---,0.00,VWS V14.00,2013-02-08 04:29:00,
2013-02-07 23:35:00,29.3,20.4,30.35,ENE,61,2.0,3.0,69,0.00,,---,0.00,VWS V14.00,2013-02-08 04:35:00,
2013-02-07 23:40:00,29.4,20.5,30.35,ENE,61,0.0,4.0,69,0.00,,---,0.00,VWS V14.00,2013-02-08 04:40:00,
2013-02-07 23:45:00,29.5,20.9,30.35,NE,52,2.0,4.0,70,0.00,,---,0.00,VWS V14.00,2013-02-08 04:45:00,
2013-02-07 23:50:00,29.7,21.5,30.35,East,85,2.0,4.0,71,0.00,,---,0.00,VWS V14.00,2013-02-08 04:50:00,
2013-02-07 23:55:00,29.9,21.7,30.35,ENE,71,3.0,4.0,71,0.00,,---,0.00,VWS V14.00,2013-02-08 04:55:00,